Weather History for KDXX - April, 2013

Change the Weather History Date:

Monday, April 22, 2013

  Actual Average (KAQP) Record (KAQP)
Temperature  
Mean Temperature 30 °F -  
Max Temperature 32 °F 57 °F 68 °F (1998)
Min Temperature 28 °F 33 °F 28 °F (2002)
Degree Days  
Heating Degree Days 35    
Moisture  
Dew Point 27 °F    
Average Humidity 86    
Maximum Humidity 93    
Minimum Humidity 74    
Precipitation  
Precipitation 0.06 in - - ()
Sea Level Pressure  
Sea Level Pressure 30.24 in    
Wind  
Wind Speed 12 mph (North)    
Max Wind Speed 20 mph    
Max Gust Speed 26 mph    
Visibility 7 miles    
Events Snow    
Averages and records for this station are not official NWS values.
T = Trace of Precipitation, MM = Missing Value Source: NWS Daily Summary

Daily Weather History Graph

Daily Weather History Graph

Search for Another Location

Airport or City:

Trip Planner

Search our weather history database for the weather conditions in past years. The results will help you decide how hot, cold, wet, or windy it might be!

Date:

Astronomy

Apr. 22, 2013 Rise Set
Actual Time 6:27 AM CDT 8:19 PM CDT
Civil Twilight 5:56 AM CDT 8:50 PM CDT
Nautical Twilight 5:18 AM CDT 9:29 PM CDT
Astronomical Twilight 4:36 AM CDT 10:11 PM CDT
Moon 5:02 PM CDT (4/22) 4:31 AM CDT (4/22)
Length of Visible Light 14h 54m
Length of Day
13h 51m
Waxing Gibbous, 88% of the Moon is Illuminated
Apr 22
Waxing Gibbous
Apr 25
Full
May 2
Last Quarter
May 9
New
May 17
First Quarter

Hourly Weather History & Observations

Time (CDT) Temp. Windchill Dew Point Humidity Pressure Visibility Wind Dir Wind Speed Gust Speed Precip Events Conditions
12:14 AM 32.0 °F 24.2 °F 28.4 °F 87% 30.18 in 10.0 mi NNW 9.2 mph - N/A   Clear
12:33 AM 32.0 °F 23.6 °F 28.4 °F 87% 30.18 in 10.0 mi NNW 10.4 mph - N/A   Clear
12:54 AM 32.0 °F 22.5 °F 28.4 °F 87% 30.19 in 10.0 mi NNW 12.7 mph - N/A   Clear
1:12 AM 32.0 °F 23.0 °F 26.6 °F 80% 30.19 in 10.0 mi NNW 11.5 mph - N/A   Clear
1:34 AM 30.2 °F 20.8 °F 26.6 °F 86% 30.19 in 10.0 mi NNW 11.5 mph - N/A   Clear
1:54 AM 32.0 °F 22.1 °F 26.6 °F 80% 30.18 in 10.0 mi North 13.8 mph - N/A   Mostly Cloudy
2:13 AM 32.0 °F 24.2 °F 26.6 °F 80% 30.20 in 10.0 mi NNW 9.2 mph - N/A   Overcast
2:34 AM 32.0 °F 24.8 °F 26.6 °F 80% 30.21 in 10.0 mi NNW 8.1 mph - N/A   Overcast
2:53 AM 32.0 °F 22.1 °F 26.6 °F 80% 30.21 in 10.0 mi North 13.8 mph - N/A   Overcast
3:14 AM 32.0 °F - 26.6 °F 80% 30.21 in 10.0 mi North - - N/A   Overcast
3:34 AM 32.0 °F 23.0 °F 26.6 °F 80% 30.19 in 10.0 mi North 11.5 mph - N/A   Overcast
3:53 AM 32.0 °F 23.6 °F 26.6 °F 80% 30.19 in 10.0 mi North 10.4 mph - N/A   Overcast
4:14 AM 30.2 °F 23.4 °F 26.6 °F 86% 30.21 in 10.0 mi North 6.9 mph - N/A   Overcast
4:34 AM 30.2 °F 22.6 °F 26.6 °F 86% 30.21 in 10.0 mi North 8.1 mph - N/A   Overcast
4:53 AM 30.2 °F 22.6 °F 26.6 °F 86% 30.21 in 10.0 mi North 8.1 mph - N/A   Overcast
5:14 AM 30.2 °F 24.3 °F 26.6 °F 86% 30.23 in 10.0 mi North 5.8 mph - N/A   Overcast
5:34 AM 30.2 °F 23.4 °F 26.6 °F 86% 30.23 in 10.0 mi North 6.9 mph - N/A   Overcast
5:53 AM 28.4 °F 21.2 °F 26.6 °F 93% 30.23 in 10.0 mi North 6.9 mph - N/A   Scattered Clouds
6:14 AM 28.4 °F 23.3 °F 26.6 °F 93% 30.23 in 10.0 mi NNW 4.6 mph - N/A   Clear
6:34 AM 28.4 °F 21.2 °F 26.6 °F 93% 30.21 in 10.0 mi North 6.9 mph - N/A   Clear
6:53 AM 28.4 °F 19.7 °F 26.6 °F 93% 30.20 in 10.0 mi North 9.2 mph - N/A   Clear
7:14 AM 28.4 °F 19.1 °F 26.6 °F 93% 30.21 in 10.0 mi North 10.4 mph - N/A   Clear
7:34 AM 30.2 °F 21.3 °F 26.6 °F 86% 30.21 in 10.0 mi North 10.4 mph - N/A   Scattered Clouds
7:53 AM 30.2 °F 21.9 °F 26.6 °F 86% 30.23 in 10.0 mi North 9.2 mph - N/A   Scattered Clouds
8:14 AM 30.2 °F 21.3 °F 26.6 °F 86% 30.23 in 10.0 mi North 10.4 mph - N/A   Clear
8:34 AM 30.2 °F 19.8 °F 26.6 °F 86% 30.23 in 10.0 mi North 13.8 mph - N/A   Scattered Clouds
8:53 AM 30.2 °F 20.8 °F 26.6 °F 86% 30.23 in 10.0 mi North 11.5 mph - N/A   Clear
9:14 AM 30.2 °F 21.3 °F 26.6 °F 86% 30.25 in 10.0 mi North 10.4 mph - N/A   Scattered Clouds
9:34 AM 32.0 °F 22.5 °F 26.6 °F 80% 30.26 in 10.0 mi North 12.7 mph - N/A   Scattered Clouds
9:53 AM 32.0 °F 23.6 °F 26.6 °F 80% 30.26 in 10.0 mi North 10.4 mph - N/A   Scattered Clouds
10:14 AM 32.0 °F 21.6 °F 26.6 °F 80% 30.24 in 10.0 mi North 15.0 mph - N/A   Clear
10:34 AM 32.0 °F 21.6 °F 28.4 °F 87% 30.25 in 10.0 mi North 15.0 mph 18.4 mph N/A   Scattered Clouds
10:53 AM 32.0 °F 21.6 °F 28.4 °F 87% 30.24 in 10.0 mi North 15.0 mph - N/A   Clear
11:14 AM 32.0 °F 21.6 °F 28.4 °F 87% 30.25 in 10.0 mi NNE 15.0 mph - N/A   Clear
11:34 AM 32.0 °F 23.0 °F 28.4 °F 87% 30.25 in 10.0 mi North 11.5 mph - N/A   Scattered Clouds
11:53 AM 32.0 °F 21.6 °F 28.4 °F 87% 30.24 in 4.0 mi North 15.0 mph - N/A Snow Light Snow
12:14 PM 32.0 °F 22.1 °F 28.4 °F 87% 30.24 in 1.2 mi North 13.8 mph - N/A Snow Light Snow
12:33 PM 32.0 °F 22.1 °F 28.4 °F 87% 30.24 in 1.5 mi North 13.8 mph - N/A Snow Light Snow
12:53 PM 32.0 °F 23.0 °F 28.4 °F 87% 30.25 in 4.0 mi North 11.5 mph - N/A Snow Light Snow
1:14 PM 32.0 °F 23.6 °F 28.4 °F 87% 30.24 in 1.5 mi NE 10.4 mph - N/A Snow Light Snow
1:33 PM 32.0 °F 23.6 °F 28.4 °F 87% 30.25 in 1.5 mi North 10.4 mph - N/A Snow Light Snow
1:54 PM 32.0 °F 23.0 °F 28.4 °F 87% 30.24 in 1.2 mi North 11.5 mph - 0.01 in Snow Light Snow
2:14 PM 30.2 °F 19.8 °F 28.4 °F 93% 30.23 in 0.8 mi North 13.8 mph - 0.01 in Snow Light Snow
2:33 PM 30.2 °F 18.9 °F 28.4 °F 93% 30.23 in 0.5 mi North 16.1 mph - 0.01 in Snow Snow
2:54 PM 30.2 °F 19.3 °F 28.4 °F 93% 30.23 in 0.2 mi North 15.0 mph - 0.02 in Snow Heavy Snow
3:14 PM 30.2 °F 19.3 °F 28.4 °F 93% 30.24 in 0.8 mi North 15.0 mph - N/A Snow Light Snow
3:33 PM 30.2 °F 19.8 °F 28.4 °F 93% 30.23 in 0.8 mi North 13.8 mph - 0.01 in Snow Light Snow
3:54 PM 30.2 °F 19.8 °F 28.4 °F 93% 30.24 in 0.8 mi North 13.8 mph - 0.02 in Snow Light Snow
4:14 PM 30.2 °F 18.9 °F 28.4 °F 93% 30.24 in 0.8 mi North 16.1 mph - 0.01 in Snow Light Snow
4:33 PM 30.2 °F 18.5 °F 28.4 °F 93% 30.24 in 1.0 mi North 17.3 mph - 0.01 in Snow Light Snow
4:54 PM 30.2 °F 18.5 °F 28.4 °F 93% 30.23 in 1.0 mi North 17.3 mph 24.2 mph 0.01 in Snow Light Snow
5:14 PM 30.2 °F 18.5 °F 28.4 °F 93% 30.23 in 0.8 mi North 17.3 mph - N/A Snow Light Snow
5:33 PM 30.2 °F 17.8 °F 28.4 °F 93% 30.23 in 0.8 mi North 19.6 mph - N/A Snow Light Snow
5:54 PM 30.2 °F 18.1 °F 28.4 °F 93% 30.24 in 1.0 mi North 18.4 mph - N/A Snow Light Snow
6:13 PM 30.2 °F 18.5 °F 28.4 °F 93% 30.24 in 1.0 mi North 17.3 mph - N/A Snow Light Snow
6:34 PM 30.2 °F 18.1 °F 28.4 °F 93% 30.24 in 1.5 mi North 18.4 mph 24.2 mph N/A Snow Light Snow
6:54 PM 30.2 °F 18.1 °F 26.6 °F 86% 30.26 in 1.5 mi North 18.4 mph - N/A Snow Light Snow
7:13 PM 30.2 °F 18.1 °F 26.6 °F 86% 30.26 in 4.0 mi North 18.4 mph - N/A Snow Light Snow
7:34 PM 30.2 °F 18.1 °F 24.8 °F 80% 30.26 in 10.0 mi North 18.4 mph - N/A   Clear
7:54 PM 30.2 °F 18.5 °F 24.8 °F 80% 30.26 in 10.0 mi North 17.3 mph - N/A   Clear
8:13 PM 30.2 °F 17.8 °F 24.8 °F 80% 30.27 in 10.0 mi NNW 19.6 mph 26.5 mph N/A   Mostly Cloudy
8:34 PM 30.2 °F 18.1 °F 24.8 °F 80% 30.27 in 10.0 mi North 18.4 mph - N/A   Overcast
8:54 PM 30.2 °F 18.9 °F 24.8 °F 80% 30.28 in 10.0 mi North 16.1 mph 23.0 mph N/A   Overcast
9:13 PM 28.4 °F 15.8 °F 24.8 °F 86% 30.28 in 10.0 mi NNW 18.4 mph - N/A   Overcast
9:34 PM 28.4 °F 15.8 °F 24.8 °F 86% 30.29 in 10.0 mi NNW 18.4 mph - N/A   Overcast
9:54 PM 28.4 °F 17.0 °F 24.8 °F 86% 30.29 in 10.0 mi NNW 15.0 mph - N/A   Overcast
10:13 PM 28.4 °F 16.2 °F 23.0 °F 80% 30.28 in 10.0 mi NNW 17.3 mph - N/A   Scattered Clouds
10:34 PM 28.4 °F 16.2 °F 23.0 °F 80% 30.28 in 10.0 mi NNW 17.3 mph - N/A   Scattered Clouds
10:53 PM 28.4 °F 16.6 °F 23.0 °F 80% 30.29 in 10.0 mi NNW 16.1 mph - N/A   Mostly Cloudy
11:13 PM 28.4 °F 15.8 °F 21.2 °F 74% 30.29 in 10.0 mi NNW 18.4 mph - N/A   Mostly Cloudy
11:34 PM 28.4 °F 16.2 °F 21.2 °F 74% 30.28 in 10.0 mi NNW 17.3 mph - N/A   Mostly Cloudy
11:53 PM 28.4 °F 15.8 °F 21.2 °F 74% 30.28 in 10.0 mi NNW 18.4 mph - N/A   Scattered Clouds